owner,sensor,date,latitude,longitude,vertical_datum,wind_speed,wind_to_direction,wind_speed_of_gust,qcFlag 
WAVCIS,ioos:station:WAVCIS:CSI06:1,2009-11-01T00:00:00Z,28.8667,-90.4833,10.0,8.48,338.0,,'11111222,11111222,99999999' 
WAVCIS,ioos:station:WAVCIS:CSI06:1,2009-11-01T01:00:00Z,28.8667,-90.4833,10.0,7.01,343.0,,'11111222,11111222,99999999' 
WAVCIS,ioos:station:WAVCIS:CSI06:1,2009-11-01T02:00:00Z,28.8667,-90.4833,10.0,5.996,357.0,,'11111222,11111222,99999999' 
WAVCIS,ioos:station:WAVCIS:CSI06:1,2009-11-01T03:00:00Z,28.8667,-90.4833,10.0,9.1,10.0,,'11111222,11111222,99999999' 
WAVCIS,ioos:station:WAVCIS:CSI06:1,2009-11-01T04:00:00Z,28.8667,-90.4833,10.0,9.1,9.0,,'11111222,11111222,99999999' 
WAVCIS,ioos:station:WAVCIS:CSI06:1,2009-11-01T05:00:00Z,28.8667,-90.4833,10.0,9.43,11.0,,'11111222,11111222,99999999' 
WAVCIS,ioos:station:WAVCIS:CSI06:1,2009-11-01T06:00:00Z,28.8667,-90.4833,10.0,9.68,17.0,,'11111222,11111222,99999999' 
WAVCIS,ioos:station:WAVCIS:CSI06:1,2009-11-01T07:00:00Z,28.8667,-90.4833,10.0,9.13,20.0,,'11111222,11111222,99999999' 
WAVCIS,ioos:station:WAVCIS:CSI06:1,2009-11-01T08:00:00Z,28.8667,-90.4833,10.0,10.29,23.0,,'11111222,11111222,99999999' 
WAVCIS,ioos:station:WAVCIS:CSI06:1,2009-11-01T09:00:00Z,28.8667,-90.4833,10.0,9.85,23.0,,'11111222,11111222,99999999' 
WAVCIS,ioos:station:WAVCIS:CSI06:1,2009-11-01T10:00:00Z,28.8667,-90.4833,10.0,10.71,26.0,,'11111222,11111222,99999999' 
WAVCIS,ioos:station:WAVCIS:CSI06:1,2009-11-01T11:00:00Z,28.8667,-90.4833,10.0,9.51,24.0,,'11111222,11111222,99999999' 
WAVCIS,ioos:station:WAVCIS:CSI06:1,2009-11-01T12:00:00Z,28.8667,-90.4833,10.0,9.33,26.0,,'11111222,11111222,99999999' 
WAVCIS,ioos:station:WAVCIS:CSI06:1,2009-11-01T13:00:00Z,28.8667,-90.4833,10.0,8.31,29.0,,'11111222,11111222,99999999' 
WAVCIS,ioos:station:WAVCIS:CSI06:1,2009-11-01T14:00:00Z,28.8667,-90.4833,10.0,8.48,41.0,,'11111222,11111222,99999999' 
WAVCIS,ioos:station:WAVCIS:CSI06:1,2009-11-01T15:00:00Z,28.8667,-90.4833,10.0,8.21,42.0,,'11111222,11111222,99999999' 
WAVCIS,ioos:station:WAVCIS:CSI06:1,2009-11-01T16:00:00Z,28.8667,-90.4833,10.0,7.8,46.0,,'11111222,11111222,99999999' 
WAVCIS,ioos:station:WAVCIS:CSI06:1,2009-11-01T17:00:00Z,28.8667,-90.4833,10.0,8.65,55.0,,'11111222,11111222,99999999' 
WAVCIS,ioos:station:WAVCIS:CSI06:1,2009-11-01T18:00:00Z,28.8667,-90.4833,10.0,7.19,44.0,,'11111222,11111222,99999999' 
WAVCIS,ioos:station:WAVCIS:CSI06:1,2009-11-01T19:00:00Z,28.8667,-90.4833,10.0,7.41,41.0,,'11111222,11111222,99999999' 
WAVCIS,ioos:station:WAVCIS:CSI06:1,2009-11-01T20:00:00Z,28.8667,-90.4833,10.0,6.95,28.0,,'11111222,11111222,99999999' 
WAVCIS,ioos:station:WAVCIS:CSI06:1,2009-11-01T21:00:00Z,28.8667,-90.4833,10.0,6.94,27.0,,'11111222,11111222,99999999' 
WAVCIS,ioos:station:WAVCIS:CSI06:1,2009-11-01T22:00:00Z,28.8667,-90.4833,10.0,5.588,22.0,,'11111222,11111222,99999999' 
WAVCIS,ioos:station:WAVCIS:CSI06:1,2009-11-01T23:00:00Z,28.8667,-90.4833,10.0,5.659,22.0,,'11111222,11111222,99999999' 
WAVCIS,ioos:station:WAVCIS:CSI06:1,2009-11-02T00:00:00Z,28.8667,-90.4833,10.0,6.662,32.0,,'11111222,11111222,99999999' 
WAVCIS,ioos:station:WAVCIS:CSI06:1,2009-11-02T01:00:00Z,28.8667,-90.4833,10.0,5.658,27.0,,'11111222,11111222,99999999' 
WAVCIS,ioos:station:WAVCIS:CSI06:1,2009-11-02T02:00:00Z,28.8667,-90.4833,10.0,3.885,9.0,,'11111222,11111222,99999999' 
WAVCIS,ioos:station:WAVCIS:CSI06:1,2009-11-02T03:00:00Z,28.8667,-90.4833,10.0,3.517,8.0,,'11111222,11111222,99999999' 
WAVCIS,ioos:station:WAVCIS:CSI06:1,2009-11-02T04:00:00Z,28.8667,-90.4833,10.0,3.978,343.0,,'11111222,11111222,99999999' 
WAVCIS,ioos:station:WAVCIS:CSI06:1,2009-11-02T05:00:00Z,28.8667,-90.4833,10.0,3.371,355.0,,'11111222,11111222,99999999' 
WAVCIS,ioos:station:WAVCIS:CSI06:1,2009-11-02T06:00:00Z,28.8667,-90.4833,10.0,5.229,9.0,,'11111222,11111222,99999999' 
WAVCIS,ioos:station:WAVCIS:CSI06:1,2009-11-02T07:00:00Z,28.8667,-90.4833,10.0,6.261,27.0,,'11111222,11111222,99999999' 
WAVCIS,ioos:station:WAVCIS:CSI06:1,2009-11-02T08:00:00Z,28.8667,-90.4833,10.0,7.25,30.0,,'11111222,11111222,99999999' 
WAVCIS,ioos:station:WAVCIS:CSI06:1,2009-11-02T09:00:00Z,28.8667,-90.4833,10.0,7.6,36.0,,'11111222,11111222,99999999' 
WAVCIS,ioos:station:WAVCIS:CSI06:1,2009-11-02T10:00:00Z,28.8667,-90.4833,10.0,7.76,47.0,,'11111222,11111222,99999999' 
WAVCIS,ioos:station:WAVCIS:CSI06:1,2009-11-02T11:00:00Z,28.8667,-90.4833,10.0,7.16,46.0,,'11111222,11111222,99999999' 
WAVCIS,ioos:station:WAVCIS:CSI06:1,2009-11-02T12:00:00Z,28.8667,-90.4833,10.0,7.08,44.0,,'11111222,11111222,99999999' 
WAVCIS,ioos:station:WAVCIS:CSI06:1,2009-11-02T13:00:00Z,28.8667,-90.4833,10.0,7.1,37.0,,'11111222,11111222,99999999' 
WAVCIS,ioos:station:WAVCIS:CSI06:1,2009-11-02T14:00:00Z,28.8667,-90.4833,10.0,6.055,40.0,,'11111222,11111222,99999999' 
WAVCIS,ioos:station:WAVCIS:CSI06:1,2009-11-02T15:00:00Z,28.8667,-90.4833,10.0,6.688,33.0,,'11111222,11111222,99999999' 
WAVCIS,ioos:station:WAVCIS:CSI06:1,2009-11-02T16:00:00Z,28.8667,-90.4833,10.0,4.878,39.0,,'11111222,11111222,99999999' 
WAVCIS,ioos:station:WAVCIS:CSI06:1,2009-11-02T17:00:00Z,28.8667,-90.4833,10.0,4.607,24.0,,'11111222,11111222,99999999' 
WAVCIS,ioos:station:WAVCIS:CSI06:1,2009-11-02T18:00:00Z,28.8667,-90.4833,10.0,4.787,35.0,,'11111222,11111222,99999999' 
WAVCIS,ioos:station:WAVCIS:CSI06:1,2009-11-02T19:00:00Z,28.8667,-90.4833,10.0,4.304,31.0,,'11111222,11111222,99999999' 
WAVCIS,ioos:station:WAVCIS:CSI06:1,2009-11-02T20:00:00Z,28.8667,-90.4833,10.0,4.227,32.0,,'11111222,11111222,99999999' 
WAVCIS,ioos:station:WAVCIS:CSI06:1,2009-11-02T21:00:00Z,28.8667,-90.4833,10.0,4.635,26.0,,'11111222,11111222,99999999' 
WAVCIS,ioos:station:WAVCIS:CSI06:1,2009-11-02T22:00:00Z,28.8667,-90.4833,10.0,4.474,20.0,,'11111222,11111222,99999999' 
WAVCIS,ioos:station:WAVCIS:CSI06:1,2009-11-02T23:00:00Z,28.8667,-90.4833,10.0,4.622,25.0,,'11111222,11111222,99999999' 
WAVCIS,ioos:station:WAVCIS:CSI06:1,2009-11-03T00:00:00Z,28.8667,-90.4833,10.0,4.989,21.0,,'11111222,11111222,99999999' 
WAVCIS,ioos:station:WAVCIS:CSI06:1,2009-11-03T01:00:00Z,28.8667,-90.4833,10.0,6.194,25.0,,'11111222,11111222,99999999' 
WAVCIS,ioos:station:WAVCIS:CSI06:1,2009-11-03T02:00:00Z,28.8667,-90.4833,10.0,6.174,31.0,,'11111222,11111222,99999999' 
WAVCIS,ioos:station:WAVCIS:CSI06:1,2009-11-03T03:00:00Z,28.8667,-90.4833,10.0,5.93,40.0,,'11111222,11111222,99999999' 
WAVCIS,ioos:station:WAVCIS:CSI06:1,2009-11-03T04:00:00Z,28.8667,-90.4833,10.0,5.296,31.0,,'11111222,11111222,99999999' 
WAVCIS,ioos:station:WAVCIS:CSI06:1,2009-11-03T05:00:00Z,28.8667,-90.4833,10.0,5.537,34.0,,'11111222,11111222,99999999' 
WAVCIS,ioos:station:WAVCIS:CSI06:1,2009-11-03T06:00:00Z,28.8667,-90.4833,10.0,5.043,37.0,,'11111222,11111222,99999999' 
WAVCIS,ioos:station:WAVCIS:CSI06:1,2009-11-03T07:00:00Z,28.8667,-90.4833,10.0,6.489,38.0,,'11111222,11111222,99999999' 
WAVCIS,ioos:station:WAVCIS:CSI06:1,2009-11-03T08:00:00Z,28.8667,-90.4833,10.0,6.654,41.0,,'11111222,11111222,99999999' 
WAVCIS,ioos:station:WAVCIS:CSI06:1,2009-11-03T09:00:00Z,28.8667,-90.4833,10.0,6.997,50.0,,'11111222,11111222,99999999' 
WAVCIS,ioos:station:WAVCIS:CSI06:1,2009-11-03T10:00:00Z,28.8667,-90.4833,10.0,7.2,48.0,,'11111222,11111222,99999999' 
WAVCIS,ioos:station:WAVCIS:CSI06:1,2009-11-03T11:00:00Z,28.8667,-90.4833,10.0,7.24,45.0,,'11111222,11111222,99999999' 
WAVCIS,ioos:station:WAVCIS:CSI06:1,2009-11-03T12:00:00Z,28.8667,-90.4833,10.0,7.1,42.0,,'11111222,11111222,99999999' 
WAVCIS,ioos:station:WAVCIS:CSI06:1,2009-11-03T13:00:00Z,28.8667,-90.4833,10.0,7.16,41.0,,'11111222,11111222,99999999' 
WAVCIS,ioos:station:WAVCIS:CSI06:1,2009-11-03T14:00:00Z,28.8667,-90.4833,10.0,8.07,30.0,,'11111222,11111222,99999999' 
WAVCIS,ioos:station:WAVCIS:CSI06:1,2009-11-03T15:00:00Z,28.8667,-90.4833,10.0,8.69,33.0,,'11111222,11111222,99999999' 
WAVCIS,ioos:station:WAVCIS:CSI06:1,2009-11-03T16:00:00Z,28.8667,-90.4833,10.0,8.73,37.0,,'11111222,11111222,99999999' 
WAVCIS,ioos:station:WAVCIS:CSI06:1,2009-11-03T17:00:00Z,28.8667,-90.4833,10.0,8.76,41.0,,'11111222,11111222,99999999' 
WAVCIS,ioos:station:WAVCIS:CSI06:1,2009-11-03T18:00:00Z,28.8667,-90.4833,10.0,8.91,51.0,,'11111222,11111222,99999999' 
WAVCIS,ioos:station:WAVCIS:CSI06:1,2009-11-03T19:00:00Z,28.8667,-90.4833,10.0,9.37,60.0,,'11111222,11111222,99999999' 
WAVCIS,ioos:station:WAVCIS:CSI06:1,2009-11-03T20:00:00Z,28.8667,-90.4833,10.0,8.65,60.0,,'11111222,11111222,99999999' 
WAVCIS,ioos:station:WAVCIS:CSI06:1,2009-11-03T21:00:00Z,28.8667,-90.4833,10.0,8.44,60.0,,'11111222,11111222,99999999' 
WAVCIS,ioos:station:WAVCIS:CSI06:1,2009-11-03T22:00:00Z,28.8667,-90.4833,10.0,7.89,54.0,,'11111222,11111222,99999999' 
WAVCIS,ioos:station:WAVCIS:CSI06:1,2009-11-03T23:00:00Z,28.8667,-90.4833,10.0,7.6,50.0,,'11111222,11111222,99999999' 
WAVCIS,ioos:station:WAVCIS:CSI06:1,2009-11-04T00:00:00Z,28.8667,-90.4833,10.0,7.33,43.0,,'11111222,11111222,99999999' 
WAVCIS,ioos:station:WAVCIS:CSI06:1,2009-11-04T01:00:00Z,28.8667,-90.4833,10.0,7.05,42.0,,'11111222,11111222,99999999' 
WAVCIS,ioos:station:WAVCIS:CSI06:1,2009-11-04T02:00:00Z,28.8667,-90.4833,10.0,6.693,25.0,,'11111222,11111222,99999999' 
WAVCIS,ioos:station:WAVCIS:CSI06:1,2009-11-04T03:00:00Z,28.8667,-90.4833,10.0,6.751,15.0,,'11111222,11111222,99999999' 
WAVCIS,ioos:station:WAVCIS:CSI06:1,2009-11-04T04:00:00Z,28.8667,-90.4833,10.0,5.852,25.0,,'11111222,11111222,99999999' 
WAVCIS,ioos:station:WAVCIS:CSI06:1,2009-11-04T05:00:00Z,28.8667,-90.4833,10.0,6.942,29.0,,'11111222,11111222,99999999' 
WAVCIS,ioos:station:WAVCIS:CSI06:1,2009-11-04T06:00:00Z,28.8667,-90.4833,10.0,7.61,41.0,,'11111222,11111222,99999999' 
WAVCIS,ioos:station:WAVCIS:CSI06:1,2009-11-04T07:00:00Z,28.8667,-90.4833,10.0,7.86,39.0,,'11111222,11111222,99999999' 
WAVCIS,ioos:station:WAVCIS:CSI06:1,2009-11-04T08:00:00Z,28.8667,-90.4833,10.0,8.16,30.0,,'11111222,11111222,99999999' 
WAVCIS,ioos:station:WAVCIS:CSI06:1,2009-11-04T09:00:00Z,28.8667,-90.4833,10.0,8.05,26.0,,'11111222,11111222,99999999' 
WAVCIS,ioos:station:WAVCIS:CSI06:1,2009-11-04T10:00:00Z,28.8667,-90.4833,10.0,7.83,29.0,,'11111222,11111222,99999999' 
WAVCIS,ioos:station:WAVCIS:CSI06:1,2009-11-04T11:00:00Z,28.8667,-90.4833,10.0,9.22,44.0,,'11111222,11111222,99999999' 
WAVCIS,ioos:station:WAVCIS:CSI06:1,2009-11-04T12:00:00Z,28.8667,-90.4833,10.0,8.58,41.0,,'11111222,11111222,99999999' 
WAVCIS,ioos:station:WAVCIS:CSI06:1,2009-11-04T13:00:00Z,28.8667,-90.4833,10.0,8.3,49.0,,'11111222,11111222,99999999' 
WAVCIS,ioos:station:WAVCIS:CSI06:1,2009-11-04T14:00:00Z,28.8667,-90.4833,10.0,7.78,52.0,,'11111222,11111222,99999999' 
WAVCIS,ioos:station:WAVCIS:CSI06:1,2009-11-04T15:00:00Z,28.8667,-90.4833,10.0,8.05,48.0,,'11111222,11111222,99999999' 
WAVCIS,ioos:station:WAVCIS:CSI06:1,2009-11-04T16:00:00Z,28.8667,-90.4833,10.0,7.84,43.0,,'11111222,11111222,99999999' 
WAVCIS,ioos:station:WAVCIS:CSI06:1,2009-11-04T17:00:00Z,28.8667,-90.4833,10.0,8.08,57.0,,'11111222,11111222,99999999' 
WAVCIS,ioos:station:WAVCIS:CSI06:1,2009-11-04T18:00:00Z,28.8667,-90.4833,10.0,7.66,45.0,,'11111222,11111222,99999999' 
WAVCIS,ioos:station:WAVCIS:CSI06:1,2009-11-04T19:00:00Z,28.8667,-90.4833,10.0,7.96,47.0,,'11111222,11111222,99999999' 
WAVCIS,ioos:station:WAVCIS:CSI06:1,2009-11-04T20:00:00Z,28.8667,-90.4833,10.0,7.48,45.0,,'11111222,11111222,99999999' 
WAVCIS,ioos:station:WAVCIS:CSI06:1,2009-11-04T21:00:00Z,28.8667,-90.4833,10.0,6.91,46.0,,'11111222,11111222,99999999' 
WAVCIS,ioos:station:WAVCIS:CSI06:1,2009-11-04T22:00:00Z,28.8667,-90.4833,10.0,7.27,56.0,,'11111222,11111222,99999999' 
WAVCIS,ioos:station:WAVCIS:CSI06:1,2009-11-04T23:00:00Z,28.8667,-90.4833,10.0,8.31,62.0,,'11111222,11111222,99999999' 
WAVCIS,ioos:station:WAVCIS:CSI06:1,2009-11-05T00:00:00Z,28.8667,-90.4833,10.0,8.5,59.0,,'11111222,11111222,99999999' 
WAVCIS,ioos:station:WAVCIS:CSI06:1,2009-11-05T01:00:00Z,28.8667,-90.4833,10.0,7.59,59.0,,'11111222,11111222,99999999' 
WAVCIS,ioos:station:WAVCIS:CSI06:1,2009-11-05T02:00:00Z,28.8667,-90.4833,10.0,6.296,67.0,,'11111222,11111222,99999999' 
WAVCIS,ioos:station:WAVCIS:CSI06:1,2009-11-05T03:00:00Z,28.8667,-90.4833,10.0,6.591,57.0,,'11111222,11111222,99999999' 
WAVCIS,ioos:station:WAVCIS:CSI06:1,2009-11-05T04:00:00Z,28.8667,-90.4833,10.0,4.932,51.0,,'11111222,11111222,99999999' 
WAVCIS,ioos:station:WAVCIS:CSI06:1,2009-11-05T05:00:00Z,28.8667,-90.4833,10.0,4.71,41.0,,'11111222,11111222,99999999' 
WAVCIS,ioos:station:WAVCIS:CSI06:1,2009-11-05T06:00:00Z,28.8667,-90.4833,10.0,5.167,39.0,,'11111222,11111222,99999999' 
WAVCIS,ioos:station:WAVCIS:CSI06:1,2009-11-05T07:00:00Z,28.8667,-90.4833,10.0,5.245,26.0,,'11111222,11111222,99999999' 
WAVCIS,ioos:station:WAVCIS:CSI06:1,2009-11-05T08:00:00Z,28.8667,-90.4833,10.0,6.208,20.0,,'11111222,11111222,99999999' 
WAVCIS,ioos:station:WAVCIS:CSI06:1,2009-11-05T09:00:00Z,28.8667,-90.4833,10.0,6.043,16.0,,'11111222,11111222,99999999' 
WAVCIS,ioos:station:WAVCIS:CSI06:1,2009-11-05T10:00:00Z,28.8667,-90.4833,10.0,7.76,17.0,,'11111222,11111222,99999999' 
WAVCIS,ioos:station:WAVCIS:CSI06:1,2009-11-05T11:00:00Z,28.8667,-90.4833,10.0,8.69,26.0,,'11111222,11111222,99999999' 
WAVCIS,ioos:station:WAVCIS:CSI06:1,2009-11-05T12:00:00Z,28.8667,-90.4833,10.0,9.2,33.0,,'11111222,11111222,99999999' 
WAVCIS,ioos:station:WAVCIS:CSI06:1,2009-11-05T13:00:00Z,28.8667,-90.4833,10.0,9.31,34.0,,'11111222,11111222,99999999' 
WAVCIS,ioos:station:WAVCIS:CSI06:1,2009-11-05T14:00:00Z,28.8667,-90.4833,10.0,9.46,39.0,,'11111222,11111222,99999999' 
WAVCIS,ioos:station:WAVCIS:CSI06:1,2009-11-05T15:00:00Z,28.8667,-90.4833,10.0,9.88,46.0,,'11111222,11111222,99999999' 
WAVCIS,ioos:station:WAVCIS:CSI06:1,2009-11-05T16:00:00Z,28.8667,-90.4833,10.0,9.23,55.0,,'11111222,11111222,99999999' 
WAVCIS,ioos:station:WAVCIS:CSI06:1,2009-11-05T17:00:00Z,28.8667,-90.4833,10.0,11.22,56.0,,'11111222,11111222,99999999' 
WAVCIS,ioos:station:WAVCIS:CSI06:1,2009-11-05T18:00:00Z,28.8667,-90.4833,10.0,11.32,56.0,,'11111222,11111222,99999999' 
WAVCIS,ioos:station:WAVCIS:CSI06:1,2009-11-05T19:00:00Z,28.8667,-90.4833,10.0,11.46,61.0,,'11111222,11111222,99999999' 
WAVCIS,ioos:station:WAVCIS:CSI06:1,2009-11-05T20:00:00Z,28.8667,-90.4833,10.0,10.43,62.0,,'11111222,11111222,99999999' 
WAVCIS,ioos:station:WAVCIS:CSI06:1,2009-11-05T21:00:00Z,28.8667,-90.4833,10.0,9.68,62.0,,'11111222,11111222,99999999' 
WAVCIS,ioos:station:WAVCIS:CSI06:1,2009-11-05T22:00:00Z,28.8667,-90.4833,10.0,10.4,60.0,,'11111222,11111222,99999999' 
WAVCIS,ioos:station:WAVCIS:CSI06:1,2009-11-05T23:00:00Z,28.8667,-90.4833,10.0,10.15,60.0,,'11111222,11111222,99999999' 
WAVCIS,ioos:station:WAVCIS:CSI06:1,2009-11-06T00:00:00Z,28.8667,-90.4833,10.0,9.45,60.0,,'11111222,11111222,99999999' 
WAVCIS,ioos:station:WAVCIS:CSI06:1,2009-11-06T01:00:00Z,28.8667,-90.4833,10.0,8.91,57.0,,'11111222,11111222,99999999' 
WAVCIS,ioos:station:WAVCIS:CSI06:1,2009-11-06T02:00:00Z,28.8667,-90.4833,10.0,9.1,64.0,,'11111222,11111222,99999999' 
WAVCIS,ioos:station:WAVCIS:CSI06:1,2009-11-06T03:00:00Z,28.8667,-90.4833,10.0,7.4,58.0,,'11111222,11111222,99999999' 
WAVCIS,ioos:station:WAVCIS:CSI06:1,2009-11-06T04:00:00Z,28.8667,-90.4833,10.0,6.685,63.0,,'11111222,11111222,99999999' 
WAVCIS,ioos:station:WAVCIS:CSI06:1,2009-11-06T05:00:00Z,28.8667,-90.4833,10.0,6.503,50.0,,'11111222,11111222,99999999' 
WAVCIS,ioos:station:WAVCIS:CSI06:1,2009-11-06T06:00:00Z,28.8667,-90.4833,10.0,7.46,49.0,,'11111222,11111222,99999999' 
WAVCIS,ioos:station:WAVCIS:CSI06:1,2009-11-06T07:00:00Z,28.8667,-90.4833,10.0,7.44,48.0,,'11111222,11111222,99999999' 
WAVCIS,ioos:station:WAVCIS:CSI06:1,2009-11-06T08:00:00Z,28.8667,-90.4833,10.0,8.08,50.0,,'11111222,11111222,99999999' 
WAVCIS,ioos:station:WAVCIS:CSI06:1,2009-11-06T09:00:00Z,28.8667,-90.4833,10.0,8.82,46.0,,'11111222,11111222,99999999' 
WAVCIS,ioos:station:WAVCIS:CSI06:1,2009-11-06T10:00:00Z,28.8667,-90.4833,10.0,9.1,51.0,,'11111222,11111222,99999999' 
WAVCIS,ioos:station:WAVCIS:CSI06:1,2009-11-06T11:00:00Z,28.8667,-90.4833,10.0,9.51,47.0,,'11111222,11111222,99999999' 
WAVCIS,ioos:station:WAVCIS:CSI06:1,2009-11-06T12:00:00Z,28.8667,-90.4833,10.0,9.81,61.0,,'11111222,11111222,99999999' 
WAVCIS,ioos:station:WAVCIS:CSI06:1,2009-11-06T13:00:00Z,28.8667,-90.4833,10.0,10.35,56.0,,'11111222,11111222,99999999' 
WAVCIS,ioos:station:WAVCIS:CSI06:1,2009-11-06T14:00:00Z,28.8667,-90.4833,10.0,10.61,52.0,,'11111222,11111222,99999999' 
WAVCIS,ioos:station:WAVCIS:CSI06:1,2009-11-06T15:00:00Z,28.8667,-90.4833,10.0,10.11,50.0,,'11111222,11111222,99999999' 
WAVCIS,ioos:station:WAVCIS:CSI06:1,2009-11-06T16:00:00Z,28.8667,-90.4833,10.0,9.56,50.0,,'11111222,11111222,99999999' 
WAVCIS,ioos:station:WAVCIS:CSI06:1,2009-11-06T17:00:00Z,28.8667,-90.4833,10.0,10.29,55.0,,'11111222,11111222,99999999' 
WAVCIS,ioos:station:WAVCIS:CSI06:1,2009-11-06T18:00:00Z,28.8667,-90.4833,10.0,10.77,56.0,,'11111222,11111222,99999999' 
WAVCIS,ioos:station:WAVCIS:CSI06:1,2009-11-06T19:00:00Z,28.8667,-90.4833,10.0,10.61,55.0,,'11111222,11111222,99999999' 
WAVCIS,ioos:station:WAVCIS:CSI06:1,2009-11-06T20:00:00Z,28.8667,-90.4833,10.0,10.54,54.0,,'11111222,11111222,99999999' 
WAVCIS,ioos:station:WAVCIS:CSI06:1,2009-11-06T21:00:00Z,28.8667,-90.4833,10.0,10.9,58.0,,'11111222,11111222,99999999' 
WAVCIS,ioos:station:WAVCIS:CSI06:1,2009-11-06T22:00:00Z,28.8667,-90.4833,10.0,9.61,68.0,,'11111222,11111222,99999999' 
WAVCIS,ioos:station:WAVCIS:CSI06:1,2009-11-06T23:00:00Z,28.8667,-90.4833,10.0,9.88,62.0,,'11111222,11111222,99999999' 
WAVCIS,ioos:station:WAVCIS:CSI06:1,2009-11-07T00:00:00Z,28.8667,-90.4833,10.0,9.64,65.0,,'11111222,11111222,99999999' 
WAVCIS,ioos:station:WAVCIS:CSI06:1,2009-11-07T01:00:00Z,28.8667,-90.4833,10.0,9.76,74.0,,'11111222,11111222,99999999' 
WAVCIS,ioos:station:WAVCIS:CSI06:1,2009-11-07T02:00:00Z,28.8667,-90.4833,10.0,9.61,83.0,,'11111222,11111222,99999999' 
WAVCIS,ioos:station:WAVCIS:CSI06:1,2009-11-07T03:00:00Z,28.8667,-90.4833,10.0,9.66,86.0,,'11111222,11111222,99999999' 
WAVCIS,ioos:station:WAVCIS:CSI06:1,2009-11-07T04:00:00Z,28.8667,-90.4833,10.0,9.07,81.0,,'11111222,11111222,99999999' 
WAVCIS,ioos:station:WAVCIS:CSI06:1,2009-11-07T05:00:00Z,28.8667,-90.4833,10.0,9.75,85.0,,'11111222,11111222,99999999' 
WAVCIS,ioos:station:WAVCIS:CSI06:1,2009-11-07T06:00:00Z,28.8667,-90.4833,10.0,8.58,87.0,,'11111222,11111222,99999999' 
WAVCIS,ioos:station:WAVCIS:CSI06:1,2009-11-07T07:00:00Z,28.8667,-90.4833,10.0,8.54,97.0,,'11111222,11111222,99999999' 
WAVCIS,ioos:station:WAVCIS:CSI06:1,2009-11-07T08:00:00Z,28.8667,-90.4833,10.0,8.16,102.0,,'11111222,11111222,99999999' 
WAVCIS,ioos:station:WAVCIS:CSI06:1,2009-11-07T09:00:00Z,28.8667,-90.4833,10.0,7.75,94.0,,'11111222,11111222,99999999' 
WAVCIS,ioos:station:WAVCIS:CSI06:1,2009-11-07T10:00:00Z,28.8667,-90.4833,10.0,7.34,111.0,,'11111222,11111222,99999999' 
WAVCIS,ioos:station:WAVCIS:CSI06:1,2009-11-07T11:00:00Z,28.8667,-90.4833,10.0,8.22,111.0,,'11111222,11111222,99999999' 
WAVCIS,ioos:station:WAVCIS:CSI06:1,2009-11-07T12:00:00Z,28.8667,-90.4833,10.0,8.04,109.0,,'11111222,11111222,99999999' 
WAVCIS,ioos:station:WAVCIS:CSI06:1,2009-11-07T13:00:00Z,28.8667,-90.4833,10.0,5.17,64.0,,'11111222,11111222,99999999' 
WAVCIS,ioos:station:WAVCIS:CSI06:1,2009-11-07T14:00:00Z,28.8667,-90.4833,10.0,6.929,60.0,,'11111222,11111222,99999999' 
WAVCIS,ioos:station:WAVCIS:CSI06:1,2009-11-07T15:00:00Z,28.8667,-90.4833,10.0,6.995,66.0,,'11111222,11111222,99999999' 
WAVCIS,ioos:station:WAVCIS:CSI06:1,2009-11-07T16:00:00Z,28.8667,-90.4833,10.0,7.68,66.0,,'11111222,11111222,99999999' 
WAVCIS,ioos:station:WAVCIS:CSI06:1,2009-11-07T17:00:00Z,28.8667,-90.4833,10.0,7.92,63.0,,'11111222,11111222,99999999' 
WAVCIS,ioos:station:WAVCIS:CSI06:1,2009-11-07T18:00:00Z,28.8667,-90.4833,10.0,9.21,58.0,,'11111222,11111222,99999999' 
WAVCIS,ioos:station:WAVCIS:CSI06:1,2009-11-07T19:00:00Z,28.8667,-90.4833,10.0,8.73,59.0,,'11111222,11111222,99999999' 
WAVCIS,ioos:station:WAVCIS:CSI06:1,2009-11-07T20:00:00Z,28.8667,-90.4833,10.0,10.39,54.0,,'11111222,11111222,99999999' 
WAVCIS,ioos:station:WAVCIS:CSI06:1,2009-11-07T21:00:00Z,28.8667,-90.4833,10.0,10.6,59.0,,'11111222,11111222,99999999' 
WAVCIS,ioos:station:WAVCIS:CSI06:1,2009-11-07T22:00:00Z,28.8667,-90.4833,10.0,10.54,57.0,,'11111222,11111222,99999999' 
WAVCIS,ioos:station:WAVCIS:CSI06:1,2009-11-07T23:00:00Z,28.8667,-90.4833,10.0,10.28,55.0,,'11111222,11111222,99999999' 
WAVCIS,ioos:station:WAVCIS:CSI06:1,2009-11-08T00:00:00Z,28.8667,-90.4833,10.0,9.76,57.0,,'11111222,11111222,99999999' 
WAVCIS,ioos:station:WAVCIS:CSI06:1,2009-11-08T01:00:00Z,28.8667,-90.4833,10.0,11.59,76.0,,'11111222,11111222,99999999' 
WAVCIS,ioos:station:WAVCIS:CSI06:1,2009-11-08T02:00:00Z,28.8667,-90.4833,10.0,11.63,73.0,,'11111222,11111222,99999999' 
WAVCIS,ioos:station:WAVCIS:CSI06:1,2009-11-08T03:00:00Z,28.8667,-90.4833,10.0,10.74,77.0,,'11111222,11111222,99999999' 
WAVCIS,ioos:station:WAVCIS:CSI06:1,2009-11-08T04:00:00Z,28.8667,-90.4833,10.0,10.51,78.0,,'11111222,11111222,99999999' 
WAVCIS,ioos:station:WAVCIS:CSI06:1,2009-11-08T05:00:00Z,28.8667,-90.4833,10.0,11.11,83.0,,'11111222,11111222,99999999' 
WAVCIS,ioos:station:WAVCIS:CSI06:1,2009-11-08T06:00:00Z,28.8667,-90.4833,10.0,11.42,84.0,,'11111222,11111222,99999999' 
WAVCIS,ioos:station:WAVCIS:CSI06:1,2009-11-08T07:00:00Z,28.8667,-90.4833,10.0,12.31,83.0,,'11111222,11111222,99999999' 
WAVCIS,ioos:station:WAVCIS:CSI06:1,2009-11-08T08:00:00Z,28.8667,-90.4833,10.0,10.79,89.0,,'11111222,11111222,99999999' 
WAVCIS,ioos:station:WAVCIS:CSI06:1,2009-11-08T09:00:00Z,28.8667,-90.4833,10.0,9.39,83.0,,'11111222,11111222,99999999' 
WAVCIS,ioos:station:WAVCIS:CSI06:1,2009-11-08T10:00:00Z,28.8667,-90.4833,10.0,8.6,78.0,,'11111222,11111222,99999999' 
WAVCIS,ioos:station:WAVCIS:CSI06:1,2009-11-08T11:00:00Z,28.8667,-90.4833,10.0,9.48,72.0,,'11111222,11111222,99999999' 
WAVCIS,ioos:station:WAVCIS:CSI06:1,2009-11-08T12:00:00Z,28.8667,-90.4833,10.0,10.66,76.0,,'11111222,11111222,99999999' 
WAVCIS,ioos:station:WAVCIS:CSI06:1,2009-11-08T13:00:00Z,28.8667,-90.4833,10.0,10.08,75.0,,'11111222,11111222,99999999' 
WAVCIS,ioos:station:WAVCIS:CSI06:1,2009-11-08T14:00:00Z,28.8667,-90.4833,10.0,11.82,68.0,,'11111222,11111222,99999999' 
WAVCIS,ioos:station:WAVCIS:CSI06:1,2009-11-08T15:00:00Z,28.8667,-90.4833,10.0,11.08,61.0,,'11111222,11111222,99999999' 
WAVCIS,ioos:station:WAVCIS:CSI06:1,2009-11-08T16:00:00Z,28.8667,-90.4833,10.0,10.25,60.0,,'11111222,11111222,99999999' 
WAVCIS,ioos:station:WAVCIS:CSI06:1,2009-11-08T17:00:00Z,28.8667,-90.4833,10.0,10.21,59.0,,'11111222,11111222,99999999' 
WAVCIS,ioos:station:WAVCIS:CSI06:1,2009-11-08T18:00:00Z,28.8667,-90.4833,10.0,10.12,69.0,,'11111222,11111222,99999999' 
WAVCIS,ioos:station:WAVCIS:CSI06:1,2009-11-08T19:00:00Z,28.8667,-90.4833,10.0,11.76,68.0,,'11111222,11111222,99999999' 
WAVCIS,ioos:station:WAVCIS:CSI06:1,2009-11-08T20:00:00Z,28.8667,-90.4833,10.0,11.92,75.0,,'11111222,11111222,99999999' 
WAVCIS,ioos:station:WAVCIS:CSI06:1,2009-11-08T21:00:00Z,28.8667,-90.4833,10.0,13.2,68.0,,'11111222,11111222,99999999' 
WAVCIS,ioos:station:WAVCIS:CSI06:1,2009-11-08T22:00:00Z,28.8667,-90.4833,10.0,13.17,61.0,,'11111222,11111222,99999999' 
WAVCIS,ioos:station:WAVCIS:CSI06:1,2009-11-08T23:00:00Z,28.8667,-90.4833,10.0,13.1,69.0,,'11111222,11111222,99999999' 
WAVCIS,ioos:station:WAVCIS:CSI06:1,2009-11-09T00:00:00Z,28.8667,-90.4833,10.0,13.13,74.0,,'11111222,11111222,99999999' 
WAVCIS,ioos:station:WAVCIS:CSI06:1,2009-11-09T01:00:00Z,28.8667,-90.4833,10.0,13.11,71.0,,'11111222,11111222,99999999' 
WAVCIS,ioos:station:WAVCIS:CSI06:1,2009-11-09T02:00:00Z,28.8667,-90.4833,10.0,12.99,67.0,,'11111222,11111222,99999999' 
WAVCIS,ioos:station:WAVCIS:CSI06:1,2009-11-09T03:00:00Z,28.8667,-90.4833,10.0,11.85,64.0,,'11111222,11111222,99999999' 
WAVCIS,ioos:station:WAVCIS:CSI06:1,2009-11-09T04:00:00Z,28.8667,-90.4833,10.0,12.02,67.0,,'11111222,11111222,99999999' 
WAVCIS,ioos:station:WAVCIS:CSI06:1,2009-11-09T05:00:00Z,28.8667,-90.4833,10.0,11.27,65.0,,'11111222,11111222,99999999' 
WAVCIS,ioos:station:WAVCIS:CSI06:1,2009-11-09T06:00:00Z,28.8667,-90.4833,10.0,12.65,63.0,,'11111222,11111222,99999999' 
WAVCIS,ioos:station:WAVCIS:CSI06:1,2009-11-09T07:00:00Z,28.8667,-90.4833,10.0,13.44,62.0,,'11111222,11111222,99999999' 